Location: *
(48.8489°N, 2.3218°E)
Time: 20:15:32
(UTC+00:00)

H-2A R/B - Pass Details

Date: 23 August 2019
Orbit: 734 x 836 km, 98.3° (Epoch: 18 October)

Event Time Altitude Azimuth Distance (km) Brightness Sun altitude
Exits shadow 20:49:53 - 198° (SSW) 3,248 5.0 -17.6°
Rises 20:49:59 0° 198° (SSW) 3,213 5.0 -17.6°
Reaches altitude 10° 20:52:40 10° 212° (SSW) 2,277 4.3 -17.9°
Maximum altitude 20:56:45 25° 267° (W) 1,477 3.9 -18.4°
Drops below altitude 10° 21:00:50 10° 322° (NW) 2,258 5.7 -18.9°
Sets 21:03:30 0° 336° (NNW) 3,180 6.5 -19.2°
